Flag for Poland Weather past 2 weeks in Toruń, Poland

Now
36 °F

Overcast.


Feels Like: 33 °F
Forecast: 30 / 42 °F
Wind: 3 mph from Southwest

Location: Torun

Current Time: Mar 4, 2015 at 6:01:12 AM

Latest Report: Mar 4, 2015 at 5:00 AM


Visibility: 6 mi

Pressure: 29.86 "Hg

Humidity: 92%

Dew point: 33 °F

Location of ToruńLocation

Historic Weather in Toruń — Graph

°F

Toruń temperature yesterday

Maximum temperature yesterday: 43 °F (at 4:00 PM)
Minimum temperature yesterday: 33 °F (at 5:00 AM)
Average temperature yesterday: 36 °F

Past Weeks' High & Low Weather Summary

 TemperatureHumidityPressure
High48 °F (Mar 1, 1:00 PM)100% (Feb 23, 12:00 AM)30.66 "Hg (Feb 23, 12:00 AM)
Low22 °F (Feb 18, 3:00 AM)45% (Feb 17, 2:00 PM)29.38 "Hg (Mar 2, 12:00 PM)
Average37 °F80%29.97 "Hg
* Reported Feb 17 3:00 AM — Mar 4 3:00 AM, Toruń, Weather by CustomWeather, © 2015

Note: Actual official high and low records may vary slightly from our data, if they occured in-between our weather recording intervals... More about our weather records

Advertising

Toruń weather history for previous 24 hours

 ConditionsComfort  
Time TempWeatherWind HumidityBarometerVisibility
3:00 AM
Wed, Mar 4
36 °FLight rain. Overcast.3 mph84%29.88 "Hg6 mi
2:00 AM35 °FLight snow. Low clouds.3 mph80%29.90 "Hg4 mi
1:00 AM35 °FOvercast.2 mph76%29.92 "Hg7 mi
12:00 AM35 °FOvercast.2 mph76%29.96 "Hg7 mi
11:00 PM
Tue, Mar 3
35 °FOvercast.2 mph76%29.98 "Hg8 mi
10:00 PM35 °FPassing clouds.2 mph77%30.00 "Hg6 mi
9:00 PM35 °FClear.2 mph77%30.00 "Hg7 mi
7:00 PM36 °FPassing clouds.2 mph79%29.99 "Hg6 mi
6:00 PM35 °FPassing clouds.1 mph84%29.98 "Hg6 mi
5:00 PM42 °FPartly sunny.3 mph62%29.96 "Hg19 mi
4:00 PM43 °FPartly sunny.3 mph63%29.95 "Hg16 mi
3:00 PM42 °FPartly sunny.5 mph66%29.93 "Hg19 mi
2:00 PM38 °FSprinkles. Overcast.5 mph82%29.92 "Hg10 mi
1:00 PM40 °FOvercast.3 mph69%29.90 "Hg19 mi
12:00 PM39 °FOvercast.3 mph75%29.89 "Hg16 mi
11:00 AM38 °FOvercast.3 mph75%29.87 "Hg14 mi
10:00 AM37 °FOvercast.3 mph78%29.85 "Hg19 mi
9:00 AM36 °FOvercast.3 mph80%29.82 "Hg28 mi
8:00 AM35 °FOvercast.3 mph85%29.80 "Hg11 mi
7:00 AM35 °FOvercast.3 mph84%29.78 "Hg11 mi
6:00 AM34 °FOvercast.3 mph87%29.76 "Hg12 mi
Weather by CustomWeather, © 2015

See weather overviewHow to use our weather pages